Weather History for York, PA

Change the Weather History Date:

Monday, February 27, 2012

  Actual Average Record
Temperature  
Mean Temperature 41 °F -  
Max Temperature 61 °F 0 °F 62 °F (1998)
Min Temperature 21 °F - 8 °F (2014)
Degree Days  
Heating Degree Days 24    
Moisture  
Dew Point 24 °F    
Average Humidity 50    
Maximum Humidity 89    
Minimum Humidity 25    
Precipitation  
Precipitation 0.00 in - - ()
Sea Level Pressure  
Sea Level Pressure 30.26 in    
Wind  
Wind Speed 5 mph (SW)    
Max Wind Speed 18 mph    
Max Gust Speed 30 mph    
Visibility 10 miles    
Events      
Averages and records for this station are not official NWS values.
T = Trace of Precipitation, MM = Missing Value Source: NWS Daily Summary

Daily Weather History Graph

Daily Weather History Graph

Search for Another Location

Airport:

Trip Planner

Search our weather history database for the weather conditions in past years. The results will help you decide how hot, cold, wet, or windy it might be!

Date:

Astronomy

Feb. 27, 2012 Rise Set
Actual Time 6:44 AM EST 5:56 PM EST
Civil Twilight 6:17 AM EST 6:23 PM EST
Nautical Twilight 5:45 AM EST 6:55 PM EST
Astronomical Twilight 5:14 AM EST 7:26 PM EST
Moon 9:12 AM EST (2/27) 11:48 PM EST (2/27)
Length of Visible Light 12h 06m
Length of Day
11h 12m
Waxing Crescent, 29% of the Moon is Illuminated
Feb 27
Waxing Crescent
Feb 29
First Quarter
Mar 8
Full
Mar 14
Last Quarter
Mar 22
New

Hourly Weather History & Observations

Time (EST) Temp. Windchill Dew Point Humidity Pressure Visibility Wind Dir Wind Speed Gust Speed Precip Events Conditions
12:53 AM 32.0 °F 28.7 °F 21.0 °F 64% 30.40 in 10.0 mi SE 3.5 mph - N/A   Clear
1:53 AM 26.1 °F - 19.9 °F 78% 30.40 in 10.0 mi Calm Calm - N/A   Clear
2:53 AM 21.9 °F - 19.0 °F 89% 30.39 in 10.0 mi Calm Calm - N/A   Clear
3:53 AM 23.0 °F - 19.0 °F 85% 30.38 in 10.0 mi Calm Calm - N/A   Clear
4:53 AM 21.9 °F - 18.0 °F 85% 30.39 in 10.0 mi Calm Calm - N/A   Clear
5:53 AM 21.9 °F - 18.0 °F 85% 30.38 in 10.0 mi Calm Calm - N/A   Clear
6:53 AM 21.9 °F - 18.0 °F 85% 30.37 in 10.0 mi Calm Calm - N/A   Clear
7:53 AM 28.9 °F - 24.1 °F 82% 30.38 in 10.0 mi Calm Calm - N/A   Clear
8:53 AM 39.0 °F 36.8 °F 25.0 °F 57% 30.34 in 10.0 mi SSW 3.5 mph - N/A   Clear
9:53 AM 45.0 °F 43.5 °F 26.1 °F 48% 30.32 in 10.0 mi Variable 3.5 mph - N/A   Partly Cloudy
10:53 AM 51.1 °F - 25.0 °F 36% 30.30 in 10.0 mi SSW 8.1 mph - N/A   Partly Cloudy
11:53 AM 54.0 °F - 25.0 °F 33% 30.26 in 10.0 mi SSW 10.4 mph 17.3 mph N/A   Partly Cloudy
12:53 PM 55.9 °F - 24.1 °F 29% 30.20 in 10.0 mi South 9.2 mph - N/A   Mostly Cloudy
1:53 PM 60.1 °F - 26.1 °F 27% 30.17 in 10.0 mi SW 10.4 mph 18.4 mph N/A   Scattered Clouds
2:53 PM 60.1 °F - 26.1 °F 27% 30.14 in 10.0 mi SSW 9.2 mph 17.3 mph N/A   Clear
3:53 PM 61.0 °F - 26.1 °F 26% 30.13 in 10.0 mi SSW 9.2 mph 20.7 mph N/A   Mostly Cloudy
4:53 PM 59.0 °F - 27.0 °F 29% 30.12 in 10.0 mi SSW 10.4 mph - N/A   Mostly Cloudy
5:53 PM 57.9 °F - 28.0 °F 32% 30.12 in 10.0 mi SSW 9.2 mph - N/A   Mostly Cloudy
6:53 PM 55.9 °F - 28.0 °F 34% 30.14 in 10.0 mi SW 10.4 mph - N/A   Clear
7:53 PM 57.0 °F - 28.9 °F 34% 30.14 in 10.0 mi WSW 8.1 mph 17.3 mph N/A   Clear
8:53 PM 52.0 °F - 28.9 °F 41% 30.16 in 10.0 mi West 6.9 mph - N/A   Clear
9:53 PM 55.0 °F - 19.9 °F 25% 30.18 in 10.0 mi West 18.4 mph 29.9 mph N/A   Clear
10:53 PM 51.1 °F - 21.9 °F 32% 30.22 in 10.0 mi West 9.2 mph - N/A   Clear
11:53 PM 46.9 °F - 24.1 °F 41% 30.28 in 10.0 mi NW 15.0 mph 26.5 mph N/A   Clear